Location: Ajisawe
(8.4333°N, 4.3833°E)
Time: 09:53:38
(UTC+00:00)

Vanguard 1 Rocket - Visible Passes

Search period start: 19 April 2021 00:00
Search period end: 29 April 2021 00:00
Orbit: 653 x 4223 km, 34.3° (Epoch: 18 April)

Date Brightness Start Highest point End Pass type
(mag) Time Alt. Az. Time Alt. Az. Time Alt. Az.
19 Apr 11.7 01:13:54 12° SSE 01:13:54 12° SSE 01:15:51 10° SSE visible
19 Apr 11.7 03:38:19 10° SSW 03:44:57 11° S 03:51:24 10° SSE visible
19 Apr 8.8 18:41:30 10° NNW 18:47:02 34° NE 18:53:01 18° E visible
19 Apr 9.3 21:05:01 10° WNW 21:10:18 46° W 21:10:18 46° W visible
20 Apr 11.6 02:23:46 12° S 02:25:11 12° S 02:32:48 10° SSE visible
20 Apr 11.7 04:56:14 10° SSW 05:09:08 16° SSE 05:19:39 10° SE visible
20 Apr 8.3 19:54:19 10° NW 20:01:16 87° NE 20:03:14 64° ESE visible
21 Apr 11.8 01:16:24 10° SSE 01:16:24 10° SSE 01:17:05 10° SSE visible
21 Apr 11.7 03:41:21 10° SSW 03:50:42 13° S 03:59:28 10° SSE visible
21 Apr 8.4 18:44:17 10° NW 18:49:56 47° NE 18:56:11 21° ESE visible
21 Apr 9.6 21:08:38 10° W 21:13:29 36° WSW 21:13:29 36° WSW visible
22 Apr 11.7 02:26:18 10° S 02:31:02 11° S 02:37:03 10° SSE visible
22 Apr 11.6 04:57:33 10° SSW 05:13:46 20° SSE 05:26:12 10° ESE visible
22 Apr 8.4 19:57:35 10° WNW 20:04:22 69° SSW 20:06:28 56° SSE visible
23 Apr 11.7 03:43:21 10° SSW 03:56:04 15° SSE 04:07:29 10° SE visible
23 Apr 7.9 18:47:14 10° NW 18:52:52 68° NE 18:59:27 22° ESE visible
23 Apr 9.9 21:12:37 10° W 21:16:45 26° WSW 21:16:45 26° WSW visible
24 Apr 11.7 02:29:29 10° S 02:36:54 12° S 02:44:23 10° SSE visible
24 Apr 11.5 04:58:57 10° SSW 05:17:59 26° SSE 05:31:49 10° ESE visible
24 Apr 8.8 20:01:06 10° WNW 20:07:39 48° SSW 20:09:45 43° S visible
25 Apr 11.7 03:45:02 10° SSW 04:00:56 19° SSE 04:14:38 10° ESE visible
25 Apr 7.8 18:50:22 10° WNW 18:55:55 83° SW 19:02:47 20° SE visible
25 Apr 10.2 21:17:06 10° WSW 21:20:05 19° SW 21:20:05 19° SW visible
26 Apr 11.7 02:31:55 10° S 02:42:28 13° SSE 02:52:57 10° SE visible
26 Apr 11.3 05:00:25 10° SSW 05:21:48 33° SSE 05:36:43 10° E visible
26 Apr 9.3 20:04:55 10° W 20:11:08 33° SSW 20:13:07 31° S visible
27 Apr 11.6 03:46:37 10° SSW 04:05:18 24° SSE 04:20:49 10° ESE visible
27 Apr 8.2 18:53:44 10° WNW 18:59:07 55° SSW 19:06:08 17° SE visible
27 Apr 10.5 21:22:24 10° SW 21:23:27 12° SW 21:23:27 12° SW visible
28 Apr 11.6 02:34:34 11° S 02:47:34 16° SSE 03:00:59 10° SE visible
28 Apr 11.2 05:02:00 10° SSW 05:25:19 41° SSE 05:41:03 10° E visible
28 Apr 9.8 20:09:15 10° WSW 20:14:48 23° SSW 20:16:28 22° S visible
